Location: Unspecified
(31.9085°N, 0.0000°E)
Time: 11:41:51
(UTC+00:00)

Hubble Space Telescope - Visible Passes

Search period start: 04 April 2026 00:00
Search period end: 14 April 2026 00:00
Orbit: 475 x 478 km, 28.5° (Epoch: 28 March)

Date Brightness Start Highest point End Pass type
(mag) Time Alt. Az. Time Alt. Az. Time Alt. Az.
4 Apr 3.0 04:46:02 10° S 04:47:41 13° SSE 04:49:20 10° SE visible
5 Apr 3.0 04:15:40 11° S 04:16:40 12° SSE 04:18:18 10° SE visible
6 Apr 3.2 03:46:25 12° SE 03:46:25 12° SE 03:47:16 10° SE visible
7 Apr 1.7 04:51:09 14° SW 04:53:54 33° SSE 04:57:18 10° ESE visible
8 Apr 1.6 04:21:47 27° SSW 04:22:51 33° SSE 04:26:15 10° ESE visible
9 Apr 1.8 03:52:23 31° SE 03:52:23 31° SE 03:55:10 10° ESE visible
10 Apr 3.0 03:22:57 17° ESE 03:22:57 17° ESE 03:24:05 10° ESE visible
10 Apr 0.9 04:56:59 13° WSW 05:00:12 50° S 05:03:50 10° ESE visible
11 Apr 0.9 04:27:32 29° WSW 04:29:05 50° S 04:32:43 10° ESE visible
12 Apr 0.9 03:58:06 49° S 03:58:06 49° S 04:01:36 10° ESE visible
13 Apr 2.4 03:28:41 25° ESE 03:28:41 25° ESE 03:30:28 10° ESE visible
13 Apr 1.4 05:02:53 10° W 05:06:21 35° SSW 05:09:48 10° SE visible
